Terminal Aerodrome Forecast
Issued by NWS

Home | Current Version | Previous Version | Text Only | Print | Product List | Glossary On
Versions: 1 2 3 4 5 6 7 8 9 10 11 12 13 14 15 16 17 18 19 20 21 22 23 24 25 26 27 28 29 30 31 32
000
FTUS45 KLKN 271722
TAFTPH
TAF
KTPH 271722Z 2718/2818 17010KT P6SM -RA SCT015 BKN025
      TEMPO 2718/2720 BKN009 OVC015
     FM272000 20012G22KT P6SM -SHRA SCT015 OVC025
     FM280500 35007KT P6SM VCSH SCT025 BKN040=

USA.gov is the U.S. government's official web portal to all federal, state and local government web resources and services.